• en France
  • Liste des pays
  • À 7 jours
  • Température de l'eau
  • Carte satellitaire
  • Carte météo
  • Widgets météo
  • user-avatar
    Se connecter

    Météo par heure à Sevan

    Ce jour, 24 Septembre, Dimanche

    Heure Température Précipitation Vent Pression Humidité
    00:00 +17°C° 0,1 mm 2 m/s 643 mmHg 73%
    01:00 +16°C° 0 mm 2 m/s 643 mmHg 75%
    02:00 +16°C° 0 mm 2 m/s 643 mmHg 77%
    03:00 +16°C° 0 mm 3 m/s 643 mmHg 79%
    04:00 +16°C° 0,2 mm 3 m/s 643 mmHg 80%
    05:00 +14°C° 0,2 mm 3 m/s 643 mmHg 81%
    06:00 +15°C° 0,2 mm 2 m/s 643 mmHg 83%
    07:00 +17°C° 0,1 mm 2 m/s 644 mmHg 75%
    08:00 +18°C° 0,1 mm 2 m/s 645 mmHg 66%
    09:00 +20°C° 0 mm 2 m/s 645 mmHg 59%
    10:00 +21°C° 0,1 mm 2 m/s 645 mmHg 54%
    11:00 +23°C° 0,1 mm 2 m/s 646 mmHg 49%
    12:00 +24°C° 0,1 mm 2 m/s 646 mmHg 44%
    13:00 +24°C° 0,1 mm 2 m/s 646 mmHg 42%
    14:00 +25°C° 0,1 mm 2 m/s 645 mmHg 41%
    15:00 +25°C° 0,1 mm 2 m/s 645 mmHg 39%
    16:00 +23°C° 0,2 mm 2 m/s 645 mmHg 46%
    17:00 +20°C° 0,2 mm 2 m/s 644 mmHg 53%
    18:00 +19°C° 0,2 mm 2 m/s 644 mmHg 60%
    19:00 +18°C° 0,3 mm 2 m/s 644 mmHg 64%
    20:00 +17°C° 0,3 mm 2 m/s 644 mmHg 69%
    21:00 +16°C° 0,3 mm 2 m/s 644 mmHg 73%
    22:00 +16°C° 0,1 mm 2 m/s 644 mmHg 75%
    23:00 +15°C° 0,1 mm 2 m/s 644 mmHg 76%

    Demain, 25 Septembre, Lundi

    Heure Température Précipitation Vent Pression Humidité
    00:00 +15°C° 0,1 mm 2 m/s 644 mmHg 78%
    01:00 +14°C° 0 mm 2 m/s 644 mmHg 79%
    02:00 +14°C° 0 mm 2 m/s 644 mmHg 80%
    03:00 +14°C° 0 mm 2 m/s 644 mmHg 82%
    04:00 +13°C° 0 mm 2 m/s 644 mmHg 82%
    05:00 +13°C° 0 mm 2 m/s 644 mmHg 83%
    06:00 +13°C° 0 mm 2 m/s 644 mmHg 84%
    07:00 +15°C° 0 mm 1 m/s 644 mmHg 73%
    08:00 +18°C° 0 mm 1 m/s 645 mmHg 63%
    09:00 +20°C° 0 mm 1 m/s 646 mmHg 52%
    10:00 +21°C° 0,2 mm 1 m/s 646 mmHg 48%
    11:00 +23°C° 0,2 mm 2 m/s 646 mmHg 43%
    12:00 +24°C° 0,2 mm 2 m/s 646 mmHg 38%
    13:00 +24°C° 0,2 mm 2 m/s 646 mmHg 37%
    14:00 +24°C° 0,2 mm 2 m/s 645 mmHg 35%
    15:00 +24°C° 0,2 mm 2 m/s 645 mmHg 34%
    16:00 +21°C° 0,1 mm 2 m/s 644 mmHg 40%
    17:00 +20°C° 0,1 mm 1 m/s 644 mmHg 47%
    18:00 +18°C° 0,1 mm 1 m/s 643 mmHg 53%
    19:00 +18°C° 0,2 mm 1 m/s 643 mmHg 58%
    20:00 +16°C° 0,2 mm 2 m/s 644 mmHg 63%
    21:00 +16°C° 0,2 mm 2 m/s 644 mmHg 69%
    22:00 +15°C° 0 mm 2 m/s 644 mmHg 70%
    23:00 +15°C° 0 mm 2 m/s 644 mmHg 72%

    Après-demain, 26 Septembre, Mardi

    Heure Température Précipitation Vent Pression Humidité
    00:00 +14°C° 0 mm 2 m/s 644 mmHg 73%
    01:00 +14°C° 0 mm 2 m/s 643 mmHg 75%
    02:00 +14°C° 0 mm 2 m/s 643 mmHg 76%
    03:00 +13°C° 0 mm 2 m/s 643 mmHg 78%
    04:00 +13°C° 0 mm 2 m/s 643 mmHg 78%
    05:00 +13°C° 0 mm 2 m/s 642 mmHg 78%
    06:00 +12°C° 0 mm 2 m/s 642 mmHg 79%
    07:00 +14°C° 0 mm 1 m/s 643 mmHg 68%
    08:00 +18°C° 0 mm 1 m/s 643 mmHg 57%
    09:00 +20°C° 0 mm 1 m/s 644 mmHg 46%
    10:00 +20°C° 0 mm 2 m/s 644 mmHg 41%
    11:00 +21°C° 0 mm 2 m/s 644 mmHg 35%
    12:00 +24°C° 0 mm 2 m/s 644 mmHg 30%
    13:00 +24°C° 0 mm 2 m/s 644 mmHg 29%
    14:00 +24°C° 0 mm 2 m/s 643 mmHg 28%
    15:00 +24°C° 0 mm 2 m/s 643 mmHg 28%
    16:00 +23°C° 0 mm 2 m/s 642 mmHg 34%
    17:00 +20°C° 0 mm 2 m/s 642 mmHg 40%
    18:00 +18°C° 0 mm 2 m/s 642 mmHg 47%
    19:00 +18°C° 0,2 mm 2 m/s 642 mmHg 52%
    20:00 +17°C° 0,2 mm 2 m/s 642 mmHg 58%
    21:00 +16°C° 0,2 mm 2 m/s 642 mmHg 64%
    22:00 +16°C° 0,2 mm 2 m/s 642 mmHg 67%
    23:00 +16°C° 0,2 mm 2 m/s 642 mmHg 70%

    27 Septembre, Mercredi

    Heure Température Précipitation Vent Pression Humidité
    00:00 +15°C° 0,2 mm 2 m/s 642 mmHg 73%
    01:00 +15°C° 0,1 mm 2 m/s 642 mmHg 74%
    02:00 +15°C° 0,1 mm 2 m/s 642 mmHg 75%
    03:00 +15°C° 0,1 mm 2 m/s 642 mmHg 76%
    04:00 +14°C° 0,1 mm 1 m/s 641 mmHg 77%
    05:00 +14°C° 0,1 mm 1 m/s 641 mmHg 77%
    06:00 +13°C° 0,1 mm 1 m/s 641 mmHg 78%
    07:00 +15°C° 0,2 mm 1 m/s 642 mmHg 69%
    08:00 +18°C° 0,2 mm 1 m/s 642 mmHg 60%
    09:00 +19°C° 0,2 mm 1 m/s 643 mmHg 51%
    10:00 +20°C° 0,3 mm 2 m/s 643 mmHg 47%
    11:00 +21°C° 0,3 mm 2 m/s 643 mmHg 44%
    12:00 +22°C° 0,3 mm 3 m/s 643 mmHg 40%
    13:00 +22°C° 0,4 mm 3 m/s 643 mmHg 41%
    14:00 +22°C° 0,4 mm 3 m/s 642 mmHg 41%
    15:00 +22°C° 0,4 mm 3 m/s 642 mmHg 42%
    16:00 +20°C° 0,8 mm 2 m/s 642 mmHg 49%
    17:00 +18°C° 0,8 mm 2 m/s 641 mmHg 57%
    18:00 +16°C° 0,8 mm 2 m/s 641 mmHg 64%
    19:00 +16°C° 0,6 mm 2 m/s 641 mmHg 68%
    20:00 +15°C° 0,6 mm 2 m/s 642 mmHg 71%
    21:00 +15°C° 0,6 mm 2 m/s 642 mmHg 75%
    22:00 +15°C° 0,1 mm 2 m/s 642 mmHg 75%
    23:00 +14°C° 0,1 mm 2 m/s 642 mmHg 75%

    28 Septembre, Jeudi

    Heure Température Précipitation Vent Pression Humidité
    00:00 +14°C° 0,1 mm 2 m/s 642 mmHg 76%
    01:00 +14°C° 0,2 mm 2 m/s 642 mmHg 77%
    02:00 +14°C° 0,2 mm 1 m/s 642 mmHg 78%
    03:00 +13°C° 0,2 mm 1 m/s 641 mmHg 78%
    04:00 +13°C° 0,4 mm 1 m/s 642 mmHg 79%
    05:00 +13°C° 0,4 mm 1 m/s 642 mmHg 79%
    06:00 +13°C° 0,4 mm 1 m/s 642 mmHg 79%
    07:00 +14°C° 0,3 mm 1 m/s 642 mmHg 74%
    08:00 +15°C° 0,3 mm 1 m/s 643 mmHg 68%
    09:00 +16°C° 0,3 mm 1 m/s 643 mmHg 63%
    10:00 +18°C° 0,2 mm 1 m/s 643 mmHg 59%
    11:00 +18°C° 0,2 mm 2 m/s 644 mmHg 56%
    12:00 +19°C° 0,2 mm 2 m/s 644 mmHg 52%
    13:00 +19°C° 0,4 mm 2 m/s 644 mmHg 51%
    14:00 +19°C° 0,4 mm 2 m/s 644 mmHg 51%
    15:00 +19°C° 0,4 mm 2 m/s 643 mmHg 50%
    16:00 +18°C° 0,3 mm 2 m/s 643 mmHg 56%
    17:00 +17°C° 0,3 mm 2 m/s 643 mmHg 62%
    18:00 +14°C° 0,3 mm 3 m/s 643 mmHg 68%
    19:00 +14°C° 0,3 mm 3 m/s 643 mmHg 71%
    20:00 +13°C° 0,3 mm 3 m/s 644 mmHg 73%
    21:00 +13°C° 0,3 mm 3 m/s 644 mmHg 76%
    22:00 +12°C° 0,1 mm 3 m/s 644 mmHg 76%
    23:00 +12°C° 0,1 mm 3 m/s 644 mmHg 77%

    29 Septembre, Vendredi

    Heure Température Précipitation Vent Pression Humidité
    00:00 +13°C° 0,1 mm 2 m/s 644 mmHg 78%
    01:00 +12°C° 0 mm 2 m/s 644 mmHg 79%
    02:00 +12°C° 0 mm 2 m/s 643 mmHg 80%
    03:00 +12°C° 0 mm 2 m/s 643 mmHg 81%
    04:00 +12°C° 0 mm 2 m/s 643 mmHg 82%
    05:00 +10°C° 0 mm 2 m/s 643 mmHg 82%
    06:00 +10°C° 0 mm 2 m/s 643 mmHg 82%
    07:00 +13°C° 0 mm 2 m/s 644 mmHg 74%
    08:00 +14°C° 0 mm 2 m/s 644 mmHg 66%
    09:00 +16°C° 0 mm 2 m/s 645 mmHg 59%
    10:00 +17°C° 0,1 mm 2 m/s 645 mmHg 55%
    11:00 +18°C° 0,1 mm 3 m/s 645 mmHg 52%
    12:00 +19°C° 0,1 mm 3 m/s 644 mmHg 48%
    13:00 +19°C° 0 mm 3 m/s 644 mmHg 48%
    14:00 +19°C° 0 mm 3 m/s 644 mmHg 47%
    15:00 +20°C° 0 mm 3 m/s 643 mmHg 47%
    16:00 +18°C° 0,2 mm 3 m/s 643 mmHg 53%
    17:00 +17°C° 0,2 mm 2 m/s 643 mmHg 59%
    18:00 +15°C° 0,2 mm 2 m/s 642 mmHg 64%
    19:00 +15°C° 0,1 mm 2 m/s 642 mmHg 68%
    20:00 +13°C° 0,1 mm 3 m/s 642 mmHg 71%
    21:00 +13°C° 0,1 mm 3 m/s 642 mmHg 74%
    22:00 +12°C° 0 mm 3 m/s 642 mmHg 74%
    23:00 +12°C° 0 mm 3 m/s 642 mmHg 74%
    Voir plus